Location: ?????
(55.6500°N, 37.2500°E)
Time: 07:42:21
(UTC+00:00)

USA 234 - Pass Details

Date: 19 May 2025
Orbit: 1097 x 1111 km, 123.0° (Epoch: 13 June)

Event Time Altitude Azimuth Distance (km) Brightness Sun altitude
Rises 20:42:27 0° 74° (ENE) 3,920 6.2 -13.8°
Reaches altitude 10° 20:44:56 10° 74° (ENE) 2,963 5.6 -13.8°
Maximum altitude 20:51:30 88° 345° (NNW) 1,111 3.3 -14.0°
Drops below altitude 10° 20:58:05 10° 258° (WSW) 2,969 5.5 -14.1°
Sets 21:00:34 0° 258° (WSW) 3,928 6.1 -14.2°
